Regional Weather Roundup
Issued by NWS Raleigh/Durham, NC

Home | Current Version | Previous Version | Text Only | Print | Product List | Glossary On
Versions: 1 2 3 4 5 6 7 8 9 10 11 12 13 14 15 16 17 18 19 20 21 22 23 24 25 26 27 28 29 30 31 32 33 34 35 36 37 38 39 40 41 42 43 44 45 46 47 48 49 50
000
ASUS42 KRAH 201710
RWRRAH
NORTH CAROLINA WEATHER ROUNDUP
NATIONAL WEATHER SERVICE RALEIGH NC
100 PM EDT MON OCT 20 2014

NOTE: "FAIR" INDICATES FEW OR NO CLOUDS BELOW 12,000 FEET WITH NO
SIGNIFICANT WEATHER AND/OR OBSTRUCTIONS TO VISIBILITY.

NCZ001-053-055-056-065-067-201800-
WESTERN NORTH CAROLINA

CITY           SKY/WX    TMP DP  RH WIND       PRES   REMARKS
ASHEVILLE      SUNNY     64  45  49 S6        30.07F
JEFFERSON      SUNNY     59  43  56 SE8       30.06F
MORGANTON      SUNNY     66  49  54 SW9       30.10F
HICKORY        MOSUNNY   64  48  56 SW10      30.06F
RUTHERFORDTON  SUNNY     66  49  54 SW14G21   30.08F
MOUNT AIRY     MOSUNNY   64  49  59 SW9G18    30.07F
BOONE          SUNNY     61  42  48 SW7       30.07F
$$

NCZ021-022-025-041-071-084-088-201800-
CENTRAL NORTH CAROLINA

CITY           SKY/WX    TMP DP  RH WIND       PRES   REMARKS
CHARLOTTE      MOSUNNY   67  47  48 S7        30.08F
GREENSBORO     PTSUNNY   67  45  45 SW16G23   30.07F
WINSTON-SALEM  SUNNY     65  45  48 SW9       30.08F
RALEIGH-DURHAM MOSUNNY   67  42  40 SW12      30.10F
FORT BRAGG     SUNNY     68  44  40 S6        30.09F
FAYETTEVILLE   SUNNY     70  47  43 SW8       30.09F
BURLINGTON     SUNNY     67  45  45 SW9       30.07F
LAURINBURG     SUNNY     70  47  43 SW14      30.10F
$$

NCZ011-015-027-028-043-044-047-080-103-201800-
NORTHEASTERN NORTH CAROLINA

CITY           SKY/WX    TMP DP  RH WIND       PRES   REMARKS
ROCKY MT-WILSO SUNNY     67  44  43 SW13      30.11F
GREENVILLE     SUNNY     68  48  49 SW13      30.13F
WASHINGTON     SUNNY     67  48  50 SW9       30.12F
ELIZABETH CITY MOSUNNY   69  43  38 S10G16    30.11F
MANTEO         SUNNY     66  48  50 S7        30.13F
CAPE HATTERAS  SUNNY     67  50  54 N5        30.13F
$$

NCZ078-087-090-091-093-098-101-201800-
SOUTHEASTERN NORTH CAROLINA

CITY           SKY/WX    TMP DP  RH WIND       PRES   REMARKS
LUMBERTON      SUNNY     72  50  45 SW12G17   30.09F
GOLDSBORO      SUNNY     69  52  54 SW9G21    30.09F
KINSTON        MOSUNNY   70  48  46 S12G17    30.12F
KENANSVILLE    MOSUNNY   69  50  49 SW5       30.12F
NEW BERN       SUNNY     72  51  47 S10       30.13F
CHERRY POINT   MOSUNNY   71  51  49 SW9       30.13F
BEAUFORT       SUNNY     69  51  52 S7        30.12F
JACKSONVILLE   PTSUNNY   71  53  52 S7        30.11F
WILMINGTON     SUNNY     71  53  52 S9        30.11F
$$



USA.gov is the U.S. government's official web portal to all federal, state and local government web resources and services.